Theta_e
355 356 356 357 356 357 358 358 357 357 357 357 356 357 356 356 355 355 356 357 357 357 359 360 361 361 361 359 358 358 358 359 359 357 356 355 352 347 343 344 346 346
356 356 356 357 357 357 358 359 358 357 357 357 356 357 357 357 357 356 357 358 357 358 359 360 361 361 360 359 358 358 357 358 358 357 356 355 354 350 344 343 345 347
356 356 356 356 356 357 358 359 359 358 357 357 357 357 358 358 358 358 358 358 358 359 359 360 361 360 360 359 358 358 358 358 358 357 357 355 354 352 346 342 344 346
357 356 356 355 356 356 357 358 359 359 358 357 357 358 358 358 359 360 359 359 359 359 360 359 360 360 359 358 358 358 358 358 358 357 357 356 354 353 349 344 343 344
357 356 356 356 356 356 356 357 358 359 359 358 358 359 359 358 358 359 360 359 358 359 359 359 359 359 360 359 358 358 358 358 359 358 357 357 355 354 351 347 345 343
357 357 356 356 356 356 357 356 356 358 359 360 359 360 361 360 359 359 359 359 359 359 359 359 358 359 360 360 358 358 359 359 358 358 358 357 356 354 351 350 348 346
358 357 357 356 356 356 357 356 355 356 358 360 360 360 361 361 361 360 359 359 359 359 359 359 359 359 360 361 359 359 360 359 359 358 358 357 356 354 352 350 350 349
358 358 357 357 357 357 357 356 356 356 356 359 360 361 361 360 361 361 360 359 358 359 359 359 359 360 360 361 361 360 361 361 360 359 358 358 357 354 352 351 350 349
359 358 357 357 358 358 358 357 357 356 356 357 359 361 361 360 360 360 360 359 358 359 360 360 360 360 361 362 361 361 362 362 361 360 359 358 357 356 353 351 351 351
360 359 358 358 358 358 358 358 357 357 356 357 357 358 361 362 360 358 359 360 359 358 359 360 361 361 361 362 362 362 362 362 361 360 359 358 357 357 355 352 351 352
361 360 359 358 358 358 358 358 357 357 357 356 357 357 359 361 361 359 358 359 360 359 359 359 360 361 361 361 361 361 362 362 361 360 359 359 358 356 356 354 353 352
362 360 359 359 358 358 358 358 358 358 357 357 357 357 358 359 361 361 358 357 359 359 359 359 358 360 361 361 361 361 361 361 360 359 359 359 359 357 356 355 354 353
363 361 360 359 359 357 357 357 357 357 358 358 357 357 358 359 360 361 360 358 357 358 359 360 359 360 360 361 361 361 361 361 360 359 359 358 359 359 358 356 355 354
363 362 361 360 359 358 357 357 356 356 357 358 358 358 358 359 360 361 361 360 358 357 358 360 361 360 361 361 362 361 361 361 360 360 359 358 358 359 359 358 356 355
363 362 361 361 360 359 358 357 356 356 356 357 358 359 358 358 358 360 361 361 360 359 358 358 361 361 361 361 361 361 361 361 360 360 359 359 358 358 359 359 358 356
362 362 361 361 361 360 358 357 357 357 356 356 358 359 358 357 357 358 360 360 361 360 360 359 360 361 362 362 361 361 360 361 361 360 360 360 359 358 359 359 358 358
362 362 361 361 361 361 360 358 358 357 357 356 357 359 359 358 358 358 359 360 361 361 361 361 360 361 362 362 362 361 360 360 360 361 361 361 360 359 358 358 359 358
364 362 362 361 361 361 361 360 358 357 357 357 357 359 360 360 359 358 358 360 360 361 361 362 361 361 361 362 362 362 361 360 360 361 361 361 361 360 359 359 359 359
365 364 363 362 361 360 360 360 359 357 357 357 357 358 360 361 361 360 359 359 361 361 362 361 362 362 361 361 362 362 361 360 360 360 361 361 361 361 360 359 359 359
367 365 364 363 362 361 360 361 360 358 357 357 358 358 359 361 362 361 360 359 360 361 362 362 362 362 362 361 361 361 361 361 360 359 360 361 361 361 360 360 360 360
368 366 365 364 363 362 361 361 360 360 358 357 358 358 358 360 361 362 362 360 359 360 361 363 363 363 363 363 362 362 361 361 361 360 359 359 360 360 360 360 359 359
368 367 366 366 365 364 363 362 361 361 359 358 358 358 358 359 360 361 362 362 361 360 360 361 362 363 363 363 363 363 362 362 361 360 360 359 359 359 359 359 359 359
369 368 367 367 366 366 365 364 363 362 361 360 358 358 359 359 359 360 361 362 362 361 360 360 361 362 364 364 365 364 364 363 362 361 360 359 359 358 358 358 359 359
369 369 368 367 367 367 366 366 365 363 363 362 360 359 359 359 359 359 360 361 362 362 362 361 360 361 363 364 366 366 366 365 363 361 360 360 360 359 359 359 358 358
370 370 369 368 368 368 368 367 367 365 365 365 363 362 360 359 360 360 360 361 361 362 363 362 362 361 361 363 365 367 368 367 365 362 361 360 361 360 360 359 359 358
371 371 371 370 369 369 369 369 368 368 367 367 366 365 363 361 361 361 361 361 361 362 362 362 363 362 362 362 363 365 367 368 366 364 362 362 361 361 361 360 359 359
Wind_Speed
40 40 38 37 37 36 35 35 35 34 33 32 33 32 33 33 32 30 30 30 29 28 27 25 24 24 24 22 20 19 20 21 20 19 19 20 17 15 16 18 17 15
41 40 39 37 37 36 35 35 36 36 35 34 33 32 31 33 32 30 30 30 30 29 28 27 25 25 25 23 22 21 21 22 22 21 20 22 20 17 17 20 20 17
42 41 40 39 38 37 36 35 36 36 36 34 33 32 31 31 32 31 30 30 31 30 29 29 27 26 26 24 23 23 22 22 23 22 21 22 23 20 18 20 23 21
43 42 42 41 40 40 38 35 35 35 36 34 34 33 32 31 30 30 31 31 31 31 30 31 29 28 27 26 25 25 24 23 23 23 22 23 24 23 20 21 23 24
44 44 43 43 41 40 38 36 35 35 35 35 34 33 33 32 31 31 31 32 32 32 31 31 31 29 29 28 27 27 27 26 25 24 24 25 26 25 22 22 23 25
43 44 45 44 42 40 38 38 38 36 35 35 35 34 33 33 33 33 33 33 33 33 33 32 32 31 30 30 30 29 29 29 28 27 26 26 27 27 25 24 24 24
42 44 43 42 41 40 39 40 39 38 36 34 34 35 34 32 33 35 35 34 34 34 34 34 33 33 32 31 31 31 30 30 30 29 28 27 28 28 27 26 26 25
42 42 42 40 39 39 40 40 40 39 37 35 33 34 35 34 33 34 35 36 35 35 35 35 34 34 33 32 33 33 32 31 30 31 31 29 28 29 30 28 27 27
41 41 41 40 39 39 40 40 40 39 37 36 35 34 35 36 36 34 34 36 37 36 35 36 35 35 35 34 34 34 34 33 32 32 32 32 30 30 31 31 29 29
40 40 41 40 40 40 40 40 39 38 37 37 36 35 35 36 37 36 35 35 37 37 37 37 36 36 37 36 36 36 36 35 34 33 34 34 33 33 32 33 32 31
40 41 41 41 41 40 41 40 39 37 38 37 37 36 36 36 36 37 37 36 37 38 39 39 38 38 38 38 38 38 37 37 36 35 35 35 35 35 35 34 34 34
42 42 42 43 43 42 41 40 39 37 37 38 38 37 37 36 36 38 39 39 39 39 39 40 40 39 40 40 39 39 38 38 38 37 37 36 36 36 37 36 36 36
43 43 43 44 44 43 42 40 39 39 38 38 39 39 37 37 37 38 39 41 41 40 40 41 41 41 41 41 40 39 39 39 38 39 38 36 36 37 37 38 38 38
43 44 44 44 44 43 42 41 40 40 39 38 39 39 39 39 38 39 40 40 41 42 42 41 41 41 41 41 40 40 39 39 39 39 38 37 36 36 37 38 39 39
42 42 43 43 42 42 42 41 41 41 40 39 39 40 41 40 39 38 39 39 40 41 42 41 41 41 42 41 41 41 40 40 39 39 38 37 37 36 37 38 40 40
41 41 41 41 41 41 42 42 41 40 40 40 40 40 41 41 39 38 38 39 40 40 41 42 41 41 42 43 43 43 41 39 38 39 38 38 37 37 37 38 39 41
40 40 40 41 41 41 42 42 41 40 40 41 40 39 40 40 39 39 39 39 40 41 41 42 42 42 42 44 44 44 43 40 39 38 38 38 38 37 37 38 39 40
40 40 40 40 41 41 41 42 41 40 39 39 39 39 38 39 40 41 41 39 39 41 42 42 43 43 43 44 45 45 45 43 40 38 38 38 39 39 39 39 38 39
40 40 40 40 40 41 40 40 40 39 38 39 39 39 38 38 40 42 41 39 39 40 42 42 42 43 44 44 45 46 47 45 42 39 38 39 39 40 40 39 38 37
40 40 40 39 39 40 39 38 39 39 39 38 38 38 38 39 40 41 41 41 40 39 41 42 42 43 45 45 46 46 47 48 46 42 39 39 40 41 41 40 39 38
40 40 39 39 38 38 38 37 38 39 39 38 37 37 39 40 40 40 41 41 41 40 39 40 42 43 44 46 47 47 47 48 47 44 40 39 40 41 41 41 40 40
39 39 39 38 38 37 37 37 37 37 38 38 36 36 37 38 38 39 40 41 42 41 39 39 40 42 43 45 46 46 47 48 48 46 42 40 40 41 41 41 41 41
38 38 38 38 37 37 37 37 37 37 37 37 36 35 35 36 37 39 39 40 40 41 41 40 39 39 41 44 45 45 45 46 47 46 42 41 41 40 39 40 41 42
37 38 37 37 37 37 36 35 36 36 36 36 36 35 35 35 36 37 37 38 38 40 42 41 39 36 36 38 41 43 44 45 46 44 42 42 41 39 38 39 40 42
36 37 37 37 37 37 36 35 35 35 34 34 35 35 34 33 32 32 34 35 36 37 38 38 37 35 33 32 34 37 41 44 44 43 42 41 39 38 38 39 40 40
35 36 37 36 36 35 35 34 33 32 32 32 32 33 32 32 31 30 31 32 33 34 34 35 35 34 32 31 30 31 36 41 44 43 41 39 38 38 38 39 39 39
Wind_Direction
198 198 198 199 200 202 202 201 202 203 204 202 203 206 206 207 206 204 208 212 213 215 215 216 215 213 214 212 209 211 210 208 210 208 204 207 211 212 201 189 188 196
200 200 200 201 202 203 203 203 203 203 204 204 205 207 207 206 206 205 208 211 213 215 214 214 215 214 215 213 208 210 212 210 210 208 206 208 210 211 206 196 192 196
200 201 201 203 204 204 205 205 205 205 205 206 206 207 206 205 205 205 207 210 212 214 213 213 214 214 215 215 210 209 212 210 209 208 207 208 210 210 209 203 199 198
201 202 203 204 205 205 205 205 205 206 206 206 207 208 207 206 206 207 208 210 213 214 213 212 212 214 214 215 213 211 212 212 210 209 208 209 211 212 210 208 206 205
202 203 204 206 206 206 206 205 206 206 206 207 207 207 208 208 207 208 209 210 212 213 213 212 212 213 214 213 213 213 213 213 211 209 210 211 212 214 212 209 209 210
204 205 206 206 207 206 206 207 208 207 206 206 206 206 207 208 209 209 209 210 211 212 211 211 211 212 213 212 213 214 214 214 212 210 211 212 212 214 214 210 209 212
207 207 207 207 207 206 207 208 209 208 207 206 206 206 206 207 209 210 210 210 210 211 210 210 210 210 212 212 211 213 215 215 214 212 211 214 214 214 214 212 212 212
208 208 208 207 206 206 208 209 209 209 208 206 206 206 206 207 208 209 210 210 210 210 210 210 210 210 210 211 210 211 213 213 214 213 212 214 215 214 213 213 214 215
209 209 208 208 207 207 208 209 209 209 208 207 207 207 207 208 209 210 210 209 209 209 209 209 210 210 210 211 211 211 211 211 212 213 213 213 214 215 214 213 215 217
210 209 208 208 207 208 209 209 209 209 208 208 208 208 208 209 210 211 211 210 209 209 209 209 209 211 210 211 213 213 212 211 211 212 214 215 215 215 215 214 215 218
209 209 208 208 208 208 209 210 209 209 209 208 208 208 209 210 210 210 211 211 210 210 210 210 210 211 211 212 214 215 214 213 212 212 214 216 217 216 216 216 216 219
207 208 207 207 208 208 209 209 209 208 208 208 208 208 209 210 210 210 211 211 212 212 212 212 212 212 213 214 214 214 215 215 214 214 215 216 218 218 218 217 218 220
207 207 207 207 208 208 209 209 209 208 208 208 208 208 208 209 210 211 211 212 214 214 214 215 214 214 215 215 214 214 215 215 215 216 216 216 218 219 220 220 220 221
207 207 208 208 208 208 208 209 209 208 208 208 208 208 208 209 210 211 212 213 214 215 216 216 216 215 215 215 214 214 215 215 216 216 216 217 218 220 221 222 222 223
207 207 208 208 208 207 208 208 209 208 208 208 208 208 209 210 211 212 212 213 214 216 216 217 217 217 216 215 215 214 214 216 217 217 217 217 218 220 222 223 224 224
206 207 207 207 207 207 208 208 208 208 207 208 209 209 210 210 211 212 213 214 214 216 216 217 218 218 218 217 216 215 215 216 217 217 218 219 219 220 221 223 225 225
205 206 206 207 207 207 207 208 208 207 207 208 209 209 210 210 210 212 214 215 214 216 217 217 219 220 219 219 219 218 217 216 217 218 219 219 221 221 222 224 225 226
203 204 205 206 207 207 208 208 208 208 208 208 208 209 209 208 209 211 214 214 214 215 217 218 220 221 220 220 220 220 219 218 218 219 219 220 221 223 224 225 225 226
200 202 204 206 207 208 208 208 208 208 208 208 208 209 208 208 209 211 213 214 214 215 217 219 221 221 221 221 221 221 221 221 220 221 221 222 222 224 225 225 225 226
199 200 202 204 206 207 208 208 208 208 209 209 209 208 208 209 210 211 213 214 215 216 217 219 221 222 222 222 222 222 222 222 222 223 224 224 225 226 226 226 226 226
197 198 200 203 204 205 207 208 208 209 210 210 209 209 209 210 211 212 214 215 216 217 218 220 222 223 223 223 223 223 223 223 223 224 225 227 228 229 229 229 229 228
197 197 198 201 202 203 205 206 208 209 210 210 211 211 212 213 213 214 215 217 218 219 220 222 224 224 224 224 224 224 223 223 223 224 226 228 230 231 232 231 231 231
197 196 197 198 200 201 204 205 207 209 211 210 211 212 214 214 215 216 217 218 219 220 222 224 225 226 225 225 225 224 223 222 222 224 227 230 232 234 234 235 234 233
198 197 197 197 199 201 203 204 206 209 210 211 211 213 215 217 218 219 220 221 221 222 223 226 227 228 228 228 227 225 223 222 222 224 227 231 234 236 237 238 238 237
198 198 197 198 199 201 203 204 206 208 210 211 212 215 218 219 220 221 223 224 225 225 227 229 231 231 232 232 230 226 224 223 221 222 226 230 233 236 238 239 241 241
198 198 198 199 200 201 203 204 205 207 208 210 212 215 218 221 222 223 225 226 227 228 230 231 232 233 234 235 234 231 227 225 222 221 225 228 230 234 237 240 242 242